Location: Étang Rond
(42.7927°N, 1.0661°E)
Time: 13:52:14
(UTC+00:00)

IRS-1D - Visible Passes

Search period start: 14 February 2026 00:00
Search period end: 24 February 2026 00:00
Orbit: 737 x 810 km, 98.8° (Epoch: 13 February)

Date Brightness Start Highest point End Pass type
(mag) Time Alt. Az. Time Alt. Az. Time Alt. Az.
14 Feb 4.3 04:46:12 10° NNE 04:51:15 51° E 04:56:11 10° S visible
14 Feb 4.7 06:26:07 10° NNW 06:29:58 22° WNW 06:33:46 10° WSW visible
15 Feb 5.6 04:12:29 10° NE 04:16:42 25° E 04:20:49 10° SSE visible
15 Feb 3.9 05:51:07 10° N 05:55:57 41° WNW 06:00:41 10° SW visible
16 Feb 6.5 03:40:15 10° ENE 03:41:57 12° E 03:43:39 10° ESE visible
16 Feb 3.4 05:16:33 10° NNE 05:21:45 84° WNW 05:26:48 10° SSW visible
17 Feb 4.5 04:42:23 10° NNE 04:47:22 46° E 04:52:12 10° S visible
17 Feb 4.6 06:22:09 10° NNW 06:26:09 23° WNW 06:30:05 10° WSW visible
18 Feb 5.8 04:08:47 10° NE 04:12:47 22° E 04:16:41 10° SE visible
18 Feb 3.8 05:47:12 10° N 05:52:06 45° WNW 05:56:52 10° SW visible
19 Feb 6.7 03:37:27 10° E 03:38:00 10° E 03:38:34 10° E visible
19 Feb 3.5 05:12:42 10° NNE 05:17:52 88° ESE 05:22:53 10° SSW visible
20 Feb 4.7 04:38:35 10° NNE 04:43:27 42° E 04:48:11 10° S visible
21 Feb 5.9 04:05:05 10° NE 04:08:50 20° E 04:12:31 10° SE visible
21 Feb 3.7 05:43:18 10° N 05:48:13 49° WNW 05:53:02 10° SW visible
22 Feb 3.5 05:08:50 10° NNE 05:13:58 81° ESE 05:18:58 10° SSW visible
23 Feb 4.9 04:34:46 10° NNE 04:39:32 38° E 04:44:09 10° SSE visible
